Location: Unspecified
(39.4830°S, 0.0000°E)
Time: 18:25:45
(UTC+00:00)

Hubble Space Telescope - Visible Passes

Search period start: 15 October 2019 00:00
Search period end: 25 October 2019 00:00
Orbit: 536 x 540 km, 28.5° (Epoch: 14 October)

Date Brightness Start Highest point End Pass type
(mag) Time Alt. Az. Time Alt. Az. Time Alt. Az.
15 Oct 2.8 03:42:32 14° N 03:42:32 14° N 03:44:18 10° NNE visible
16 Oct 3.1 03:32:46 11° N 03:32:46 11° N 03:33:17 10° NNE visible
24 Oct 3.0 19:12:09 10° N 19:13:06 11° NNE 19:14:02 10° NNE visible
